星链-35403(STARLINK-35403)

导读 | 豆包AI

STARLINK-35403是美国SpaceX公司星链(Starlink)低轨卫星互联网星座的一员,于2025年10月19日发射。星链星座旨在为全球提供宽带互联网服务,该卫星采用平板设计,搭载霍尔推进器,运行于近地轨道,具备自主避撞能力,设计寿命5年以上,服役末期会主动离轨并在大气层中烧毁,减少空间碎片影响。

Basic Information
目录编号:
66081
目录名称:
STARLINK-35403
国际标识:
2025-235Z
轨道中心:
EARTH
卫星名称:
星链-35403
卫星全名:
星链-35403(STARLINK-35403)
卫星状态:
在轨 (已飞行192 天)
发射日期:
2025-10-19 UTC
国别 :
美国 (US)
星等 :
--
Orbit Information
数据来源 国际轨道数据 AOE轨道数据
星历时间 2026-04-29T06:00:02+0800
9小时前
查看轨道信息
2026-04-22T21:00:00+0800
6天前
查看轨道信息
半长轴 6848.837km 6853.281km
偏心率 0.000093 0.0001481
轨道倾角 53.161° 53.160°
近地点辐角 91.170° 75.237°
升交点赤经 11.617° 41.265°
平近点角 6.528° 145.445°
近地点 470.063km 474.129km
远地点 471.337km 476.159km
周期 94.012分钟 94.104分钟
每日圈数 15.317136 15.302241
Detailed Information
固有亮度:
5
最大亮度:
2.5
卫星平台:
Starlink V1.0
覆盖范围:
全球
运营商:
太空探索技术公司
运营商所在国:
美国
制造商(研发单位):
太空探索技术公司
制造商所在国:
美国
使用方式:
暂无
Satellite Introduction
Starlink 计划是 SpaceX 推出的全球卫星互联网项目,通过发射低轨道卫星,为全球尤其是偏远地区提供高速、低延迟的互联网服务。自 2019 年起,Starlink 已部署数千颗卫星,旨在缩小全球数字鸿沟,推动互联网普及。该项目还为军事、航空等行业提供通信支持,带来广泛经济效益。
2D Orbit Map
3D Orbit Map
Orbit Altitude Analysis Chart
Orbit Inclination Analysis Chart
Orbit Comprehensive Analysis Chart
View Comprehensive Chart